Wetterdaten: aktuell Donnerstag, 16.08.2018 03:00
Datum Zeit Temp. A. Feuchte A. Luftdruck Regen Wind Richtung Richtung Taupunkt Windben
16.08.2018 03:00 10,6 C 83 % 1021,2 hPa 0,0 l/m 0,0 km/h SO 135 7,8 C 0,0 km/h
16.08.2018 02:55 10,6 C 83 % 1021,2 hPa 0,0 l/m 0,6 km/h SO 135 7,8 C 0,0 km/h
16.08.2018 02:50 10,7 C 83 % 1021,2 hPa 0,0 l/m 0,8 km/h SO 135 7,9 C 0,0 km/h
16.08.2018 02:45 10,7 C 83 % 1021,2 hPa 0,0 l/m 0,3 km/h SO 135 7,9 C 1,8 km/h
16.08.2018 02:40 10,7 C 82 % 1021,2 hPa 0,0 l/m 0,8 km/h SO 135 7,8 C 0,0 km/h
16.08.2018 02:35 10,7 C 82 % 1021,2 hPa 0,0 l/m 1,4 km/h SO 135 7,8 C 0,0 km/h
16.08.2018 02:30 10,7 C 82 % 1021,2 hPa 0,0 l/m 1,8 km/h SO 135 7,8 C 2,3 km/h
16.08.2018 02:25 10,8 C 82 % 1021,2 hPa 0,0 l/m 1,4 km/h SO 135 7,9 C 1,9 km/h
16.08.2018 02:20 10,8 C 82 % 1021,4 hPa 0,0 l/m 0,8 km/h SO 135 7,9 C 2,3 km/h
16.08.2018 02:15 10,9 C 82 % 1021,4 hPa 0,0 l/m 0,8 km/h SO 135 7,9 C 0,0 km/h
16.08.2018 02:10 10,9 C 82 % 1021,4 hPa 0,0 l/m 1,0 km/h SO 135 7,9 C 1,6 km/h
16.08.2018 02:05 11,0 C 81 % 1021,4 hPa 0,0 l/m 0,5 km/h O-SO 112 7,9 C 1,8 km/h
16.08.2018 02:00 11,0 C 81 % 1021,4 hPa 0,0 l/m 0,5 km/h SO 135 7,9 C 1,8 km/h
16.08.2018 01:55 11,0 C 81 % 1021,4 hPa 0,0 l/m 0,2 km/h SO 135 7,9 C 1,6 km/h
16.08.2018 01:50 11,1 C 81 % 1021,4 hPa 0,0 l/m 0,2 km/h SO 135 8,0 C 0,0 km/h
16.08.2018 01:45 11,1 C 81 % 1021,4 hPa 0,0 l/m 0,6 km/h SO 135 8,0 C 0,0 km/h
16.08.2018 01:40 11,2 C 81 % 1021,6 hPa 0,0 l/m 1,1 km/h O-SO 112 8,1 C 0,0 km/h
16.08.2018 01:35 11,2 C 80 % 1021,6 hPa 0,0 l/m 1,3 km/h SO 135 7,9 C 2,3 km/h
16.08.2018 01:30 11,3 C 80 % 1021,6 hPa 0,0 l/m 0,6 km/h SO 135 8,0 C 0,0 km/h
16.08.2018 01:25 11,3 C 80 % 1021,6 hPa 0,0 l/m 0,8 km/h SO 135 8,0 C 1,6 km/h
16.08.2018 01:20 11,4 C 80 % 1021,6 hPa 0,0 l/m 1,1 km/h O-SO 112 8,1 C 1,6 km/h
16.08.2018 01:15 11,4 C 79 % 1021,6 hPa 0,0 l/m 1,4 km/h SO 135 7,9 C 2,1 km/h
16.08.2018 01:10 11,5 C 79 % 1021,6 hPa 0,0 l/m 0,8 km/h SO 135 8,0 C 2,1 km/h
16.08.2018 01:05 11,5 C 79 % 1021,6 hPa 0,0 l/m 1,0 km/h SO 135 8,0 C 0,0 km/h
16.08.2018 01:00 11,6 C 79 % 1021,6 hPa 0,0 l/m 1,8 km/h SO 135 8,1 C 1,9 km/h
16.08.2018 00:55 11,6 C 79 % 1021,6 hPa 0,0 l/m 1,6 km/h SO 135 8,1 C 2,7 km/h
16.08.2018 00:50 11,7 C 79 % 1021,6 hPa 0,0 l/m 1,8 km/h SO 135 8,2 C 0,0 km/h
16.08.2018 00:45 11,8 C 79 % 1021,6 hPa 0,0 l/m 1,9 km/h SO 135 8,3 C 1,9 km/h
16.08.2018 00:40 11,9 C 78 % 1021,3 hPa 0,0 l/m 1,9 km/h SO 135 8,2 C 1,8 km/h
16.08.2018 00:35 11,9 C 78 % 1021,3 hPa 0,0 l/m 2,1 km/h SO 135 8,2 C 2,9 km/h
16.08.2018 00:30 11,9 C 78 % 1021,3 hPa 0,0 l/m 1,8 km/h SO 135 8,2 C 2,3 km/h
16.08.2018 00:25 12,0 C 78 % 1021,3 hPa 0,0 l/m 1,0 km/h O-SO 112 8,3 C 2,7 km/h
16.08.2018 00:20 12,1 C 78 % 1021,6 hPa 0,0 l/m 1,0 km/h N-NW 337 8,4 C 0,0 km/h
16.08.2018 00:15 12,2 C 78 % 1021,6 hPa 0,0 l/m 1,3 km/h SO 135 8,5 C 2,3 km/h
16.08.2018 00:10 12,3 C 77 % 1021,6 hPa 0,0 l/m 1,0 km/h SO 135 8,4 C 2,1 km/h
16.08.2018 00:05 12,3 C 77 % 1021,6 hPa 0,0 l/m 0,6 km/h SO 135 8,4 C 0,0 km/h
16.08.2018 00:00 12,4 C 77 % 1021,4 hPa 0,0 l/m 0,3 km/h SO 135 8,5 C 0,0 km/h
15.08.2018 23:55 12,5 C 77 % 1021,4 hPa 0,0 l/m 0,3 km/h SO 135 8,6 C 0,0 km/h
15.08.2018 23:50 12,5 C 77 % 1021,4 hPa 0,0 l/m 0,2 km/h SO 135 8,6 C 0,0 km/h
15.08.2018 23:45 12,5 C 77 % 1021,4 hPa 0,0 l/m 0,8 km/h SO 135 8,6 C 0,0 km/h
15.08.2018 23:40 12,6 C 76 % 1021,3 hPa 0,0 l/m 1,9 km/h O-SO 112 8,5 C 1,9 km/h
15.08.2018 23:35 12,7 C 76 % 1021,3 hPa 0,0 l/m 2,1 km/h SO 135 8,6 C 2,1 km/h
15.08.2018 23:30 12,7 C 76 % 1021,3 hPa 0,0 l/m 2,1 km/h SO 135 8,6 C 2,4 km/h
15.08.2018 23:25 12,8 C 76 % 1021,3 hPa 0,0 l/m 2,1 km/h SO 135 8,7 C 1,9 km/h
15.08.2018 23:20 12,9 C 76 % 1021,2 hPa 0,0 l/m 2,1 km/h SO 135 8,8 C 1,8 km/h
15.08.2018 23:15 13,0 C 75 % 1021,2 hPa 0,0 l/m 2,1 km/h SO 135 8,7 C 2,3 km/h
15.08.2018 23:10 13,1 C 74 % 1021,2 hPa 0,0 l/m 1,9 km/h SO 135 8,6 C 2,3 km/h
15.08.2018 23:05 13,2 C 74 % 1021,2 hPa 0,0 l/m 2,3 km/h SO 135 8,7 C 1,8 km/h
15.08.2018 23:00 13,3 C 74 % 1021,4 hPa 0,0 l/m 1,9 km/h SO 135 8,8 C 2,4 km/h
15.08.2018 22:55 13,4 C 73 % 1021,4 hPa 0,0 l/m 1,8 km/h SO 135 8,7 C 2,4 km/h
15.08.2018 22:50 13,5 C 73 % 1021,4 hPa 0,0 l/m 2,1 km/h O-SO 112 8,8 C 1,6 km/h
15.08.2018 22:45 13,6 C 73 % 1021,4 hPa 0,0 l/m 2,1 km/h SO 135 8,9 C 2,1 km/h
15.08.2018 22:40 13,7 C 73 % 1021,4 hPa 0,0 l/m 1,8 km/h O-SO 112 8,9 C 2,9 km/h
15.08.2018 22:35 13,9 C 72 % 1021,4 hPa 0,0 l/m 1,8 km/h SO 135 8,9 C 1,8 km/h
15.08.2018 22:30 14,0 C 72 % 1021,4 hPa 0,0 l/m 1,9 km/h SO 135 9,0 C 1,8 km/h
15.08.2018 22:25 14,1 C 71 % 1021,4 hPa 0,0 l/m 1,9 km/h SO 135 8,9 C 2,4 km/h
15.08.2018 22:20 14,3 C 71 % 1021,6 hPa 0,0 l/m 1,9 km/h SO 135 9,1 C 2,7 km/h
15.08.2018 22:15 14,4 C 70 % 1021,6 hPa 0,0 l/m 1,8 km/h SO 135 9,0 C 2,3 km/h
15.08.2018 22:10 14,6 C 70 % 1021,6 hPa 0,0 l/m 1,8 km/h SO 135 9,2 C 0,0 km/h
15.08.2018 22:05 14,7 C 69 % 1021,6 hPa 0,0 l/m 1,9 km/h SO 135 9,1 C 2,4 km/h
15.08.2018 22:00 14,9 C 69 % 1021,6 hPa 0,0 l/m 1,9 km/h SO 135 9,3 C 1,9 km/h
15.08.2018 21:55 15,1 C 68 % 1021,6 hPa 0,0 l/m 1,6 km/h SO 135 9,2 C 2,3 km/h
15.08.2018 21:50 15,3 C 68 % 1021,6 hPa 0,0 l/m 1,6 km/h SO 135 9,4 C 1,9 km/h
15.08.2018 21:45 15,5 C 68 % 1021,6 hPa 0,0 l/m 1,9 km/h SO 135 9,6 C 1,9 km/h
15.08.2018 21:40 15,7 C 67 % 1021,4 hPa 0,0 l/m 1,8 km/h O-SO 112 9,6 C 3,2 km/h
15.08.2018 21:35 15,9 C 67 % 1021,4 hPa 0,0 l/m 1,6 km/h O-SO 112 9,8 C 1,8 km/h
15.08.2018 21:30 16,2 C 65 % 1021,4 hPa 0,0 l/m 1,8 km/h SO 135 9,6 C 1,8 km/h
15.08.2018 21:25 16,4 C 65 % 1021,4 hPa 0,0 l/m 1,6 km/h SO 135 9,8 C 1,8 km/h
15.08.2018 21:20 16,6 C 64 % 1021,2 hPa 0,0 l/m 1,0 km/h SO 135 9,8 C 1,9 km/h
15.08.2018 21:15 16,8 C 63 % 1021,2 hPa 0,0 l/m 1,1 km/h SO 135 9,7 C 1,6 km/h
15.08.2018 21:10 17,1 C 63 % 1021,2 hPa 0,0 l/m 2,3 km/h SO 135 10,0 C 1,8 km/h
15.08.2018 21:05 17,3 C 62 % 1021,2 hPa 0,0 l/m 2,4 km/h SO 135 9,9 C 1,9 km/h
15.08.2018 21:00 17,6 C 61 % 1021,0 hPa 0,0 l/m 2,3 km/h SO 135 10,0 C 2,7 km/h
15.08.2018 20:55 17,8 C 61 % 1021,0 hPa 0,0 l/m 2,3 km/h SO 135 10,2 C 2,4 km/h
15.08.2018 20:50 18,2 C 60 % 1021,0 hPa 0,0 l/m 1,9 km/h SO 135 10,3 C 2,4 km/h
15.08.2018 20:45 18,5 C 59 % 1021,0 hPa 0,0 l/m 1,0 km/h SO 135 10,3 C 2,4 km/h
15.08.2018 20:40 18,9 C 59 % 1020,9 hPa 0,0 l/m 0,3 km/h SO 135 10,7 C 1,6 km/h
15.08.2018 20:35 19,1 C 58 % 1020,9 hPa 0,0 l/m 0,3 km/h SO 135 10,6 C 0,0 km/h
15.08.2018 20:30 19,6 C 57 % 1020,9 hPa 0,0 l/m 0,6 km/h SO 135 10,8 C 1,6 km/h
15.08.2018 20:25 19,7 C 57 % 1020,9 hPa 0,0 l/m 1,0 km/h SO 135 10,9 C 0,0 km/h
15.08.2018 20:20 20,1 C 56 % 1020,7 hPa 0,0 l/m 0,8 km/h O-SO 112 11,0 C 2,1 km/h
15.08.2018 20:15 20,4 C 56 % 1020,7 hPa 0,0 l/m 0,3 km/h SO 135 11,3 C 1,9 km/h
15.08.2018 20:10 20,8 C 55 % 1020,7 hPa 0,0 l/m 0,0 km/h O-SO 112 11,4 C 0,0 km/h
15.08.2018 20:05 21,0 C 54 % 1020,7 hPa 0,0 l/m 0,2 km/h O-SO 112 11,3 C 0,0 km/h
15.08.2018 20:00 21,3 C 53 % 1020,6 hPa 0,0 l/m 0,3 km/h O-SO 112 11,3 C 0,0 km/h
15.08.2018 19:55 21,4 C 54 % 1020,6 hPa 0,0 l/m 1,4 km/h W-SW 247 11,7 C 2,1 km/h
15.08.2018 19:50 21,5 C 53 % 1020,6 hPa 0,0 l/m 3,9 km/h W-NW 292 11,5 C 2,6 km/h
15.08.2018 19:45 21,7 C 50 % 1020,6 hPa 0,0 l/m 4,5 km/h NW 315 10,8 C 4,8 km/h
15.08.2018 19:40 21,9 C 50 % 1020,5 hPa 0,0 l/m 4,5 km/h NW 315 11,0 C 9,2 km/h
15.08.2018 19:35 22,0 C 49 % 1020,5 hPa 0,0 l/m 4,2 km/h NW 315 10,8 C 4,5 km/h
15.08.2018 19:30 22,2 C 49 % 1020,5 hPa 0,0 l/m 4,0 km/h W-SW 247 11,0 C 2,7 km/h
15.08.2018 19:25 22,2 C 49 % 1020,5 hPa 0,0 l/m 3,9 km/h W 270 11,0 C 4,8 km/h
15.08.2018 19:20 22,3 C 49 % 1020,8 hPa 0,0 l/m 3,7 km/h NW 315 11,1 C 4,3 km/h
15.08.2018 19:15 22,4 C 49 % 1020,8 hPa 0,0 l/m 3,7 km/h NW 315 11,2 C 5,1 km/h
15.08.2018 19:10 22,5 C 49 % 1020,8 hPa 0,0 l/m 5,1 km/h NW 315 11,2 C 4,5 km/h
15.08.2018 19:05 22,5 C 49 % 1020,8 hPa 0,0 l/m 5,3 km/h NW 315 11,2 C 4,7 km/h
15.08.2018 19:00 22,5 C 49 % 1020,8 hPa 0,0 l/m 4,5 km/h W 270 11,2 C 8,9 km/h
15.08.2018 18:55 22,5 C 49 % 1020,8 hPa 0,0 l/m 4,5 km/h NW 315 11,2 C 5,0 km/h
15.08.2018 18:50 22,7 C 49 % 1020,8 hPa 0,0 l/m 6,0 km/h W 270 11,4 C 4,2 km/h
15.08.2018 18:45 22,7 C 49 % 1020,8 hPa 0,0 l/m 4,5 km/h W-NW 292 11,4 C 5,8 km/h
_ Min-Zeit 02:55 17:35 04:00 - 05:45 - - 02:30 04:45
Minimum _ 10,6 C 46 % 1019,8 hPa - 0,0 km/h - - 7,8 C 0,0 km/h
_ Max-Zeit 16:15 06:50 11:05 04:00 16:20 - - 10:15 15:35
Maximum _ 24,0 C 90 % 1022,1 hPa 0,0 l/m 10,0 km/h
NW
- - 14,8 C 18,7 km/h
W
Durchschnitt _ 16,5 C 72 % 1021,0 hPa #0,0 l/m 3,1 km/h SO - 11,0 C 3,8 km/h